EW7554 Weather Reports


time (UTC)temp
C
wind
direction
speed
KPH
gust
KPH
rain 1hr
cm
rain 24hr
cm
rain mn
cm
humidity
%
barometer
mb
20260505074536 5 355 11.3 22.5 0.00 0.00 0.00 53 1007.7
20260505073034 5 298 8.0 19.3 0.00 0.00 0.00 54 1007.7
20260505071529 6 321 8.0 20.9 0.00 0.00 0.00 54 1007.8
20260505070031 6 266 6.4 19.3 0.00 0.00 0.00 54 1007.7
20260505064525 6 292 8.0 17.7 0.00 0.00 0.00 54 1007.8
20260505063024 6 292 6.4 17.7 0.00 0.00 0.00 52 1007.6
20260505061526 6 313 6.4 19.3 0.00 0.00 0.00 51 1007.8
20260505060020 6 310 6.4 19.3 0.00 0.00 0.00 52 1007.8
20260505054517 6 289 4.8 12.9 0.00 0.00 0.00 55 1007.6
20260505053016 6 297 6.4 12.9 0.00 0.00 0.00 56 1007.6
20260505051530 6 286 4.8 12.9 0.00 0.00 0.00 56 1007.3
20260505041503 6 268 4.8 11.3 0.00 0.00 0.00 53 1007.2
20260505040002 6 260 3.2 12.9 0.00 0.00 0.00 52 1007.1
20260505034601 6 247 3.2 11.3 0.00 0.00 0.00 51 1007.0
20260505033059 7 251 1.6 6.4 0.00 0.00 0.00 51 1007.0
20260505031559 7 253 1.6 8.0 0.00 0.00 0.00 49 1007.0
20260505030055 7 243 3.2 11.3 0.00 0.00 0.00 48 1006.9
20260505024554 7 265 1.6 6.4 0.00 0.00 0.00 48 1006.8
20260505023050 8 263 1.6 11.3 0.00 0.00 0.00 46 1006.6
20260505021551 8 292 6.4 12.9 0.00 0.00 0.00 45 1006.3
20260505020044 8 293 6.4 16.1 0.00 0.00 0.00 45 1006.2
20260505014543 8 312 8.0 27.4 0.00 0.00 0.00 42 1006.0
20260505013040 9 315 16.1 33.8 0.00 0.00 0.00 42 1005.9
20260505011537 9 286 11.3 24.1 0.00 0.00 0.00 42 1005.8
20260505010037 10 317 16.1 32.2 0.00 0.00 0.00 42 1005.2
20260505004529 10 309 17.7 35.4 0.00 0.00 0.00 43 1005.0
20260505003025 11 355 20.9 43.5 0.00 0.00 0.00 40 1004.8
20260505001523 11 328 16.1 35.4 0.00 0.00 0.00 40 1004.4
20260505000020 11 314 19.3 38.6 0.00 0.00 0.00 39 1004.1
20260504234521 11 296 19.3 38.6 0.00 0.00 0.00 38 1004.0
20260504233016 11 274 19.3 37.0 0.00 0.00 0.00 39 1004.0
20260504231513 12 304 17.7 33.8 0.00 0.00 0.00 38 1003.8
20260504230012 12 337 17.7 40.2 0.00 0.00 0.00 40 1003.6
20260504224509 12 269 16.1 46.7 0.00 0.00 0.00 40 1003.4
20260504223006 12 275 14.5 41.8 0.00 0.00 0.00 40 1003.2
20260504221502 13 273 16.1 40.2 0.00 0.00 0.00 39 1002.7
20260504220002 13 334 20.9 49.9 0.00 0.00 0.00 39 1002.5
20260504214559 13 301 19.3 40.2 0.00 0.00 0.00 40 1002.1
20260504213059 13 309 17.7 41.8 0.00 0.00 0.00 39 1002.1
20260504211556 14 328 19.3 41.8 0.00 0.00 0.00 38 1001.8
20260504210107 15 287 9.7 32.2 0.00 0.00 0.00 37 1001.7
20260504204605 14 304 14.5 37.0 0.00 0.00 0.00 38 1001.5
20260504203106 15 337 19.3 37.0 0.00 0.00 0.00 37 1001.5
20260504201555 15 302 22.5 41.8 0.00 0.00 0.00 38 1001.3
20260504200053 15 284 14.5 35.4 0.00 0.00 0.00 40 1001.1
20260504194601 15 297 20.9 41.8 0.00 0.00 0.00 38 1001.2
20260504193052 16 327 12.9 33.8 0.00 0.00 0.00 38 1000.9
20260504191551 15 329 14.5 40.2 0.00 0.00 0.00 40 1000.5
20260504190116 15 338 16.1 40.2 0.00 0.00 0.00 38 1000.6
20260504184551 15 294 20.9 40.2 0.00 0.00 0.00 37 1000.4
20260504183051 15 292 16.1 37.0 0.00 0.00 0.00 35 1000.1
20260504181550 15 292 25.7 41.8 0.00 0.00 0.00 35 1000.1
20260504180049 15 271 8.0 37.0 0.00 0.00 0.00 37 999.6
20260504174548 16 290 16.1 38.6 0.00 0.00 0.00 37 999.4
20260504173047 15 266 20.9 41.8 0.00 0.00 0.00 38 999.4
20260504171546 16 305 17.7 30.6 0.00 0.00 0.00 39 999.2
20260504081533 13 186 12.9 22.5 0.00 0.00 0.00 45 998.5